NOAA 9 [P]

Last updated on Mon Oct 12 2020 06:50:52 GMT+0100 (British Summer Time)

1 15427U 84123A 20285.88796059 .00000001 00000-0 23474-4 0 9991 2 15427 98.9553 240.7185 0015811 105.1908 275.4850 14.16108492850007
UTC large
Height (km)
Speed (km/s)
/
Latitude / Longitude
Inclination (degrees)
Orbital Period (minutes)
Azimuth
Elevation
Range (km)
Doppler Factor

Next 0 passes for location: London (51.5072 / 0.1276)

Sorry there are no passes over London.